User: anonymous   Login
Location: Paderno d�Adda
(45.6667°N, 9.4333°E)
Time: 10:18:19
(UTC+00:00)
Language:

Cosmos 2151 Rocket - Orbit

View from above orbital plane
View from above orbital plane
View from above satellite
View from above satellite

Ground track
Ground track

The orbit data is extracted from the following two-line orbital elements,

1 21423U 91042B   20336.95344403  .00000138  00000-0  15143-4 0  9994
2 21423  82.4956 220.3500 0019063  72.0291 288.2998 14.79807073568438
Epoch (UTC): 01 December 2020 22:52:57
Eccentricity: 0.0019063
inclination: 82.4956°
perigee height: 616 km
apogee height: 643 km
right ascension of ascending node: 220.3500°
argument of perigee: 72.0291°
revolutions per day: 14.79807073
mean anomaly at epoch: 288.2998°
orbit number at epoch: 56843

The dashed part of the orbit path shows where the satellite is in the earth's shadow,  

DLR